Flag for Germany Weather past 2 weeks in Crailsheim, Baden-Württemberg, Germany

Now
52 °F

Passing clouds.


Feels Like: 50 °F
Forecast: 56 / 68 °F
Wind: 6 mph from Southeast

Location: Niederstetten

Current Time: Aug 28, 2014 at 3:45:11 AM

Latest Report: Aug 28, 2014 at 2:20 AM


Visibility: N/A

Pressure: 30.07 "Hg

Humidity: 82%

Dew point: 46 °F

Location of CrailsheimLocation

Historic Weather in Crailsheim — Graph

°F

Crailsheim temperature yesterday

Maximum temperature yesterday: 66 °F (at 4:20 PM)
Minimum temperature yesterday: 52 °F (at 6:20 AM)
Average temperature yesterday: 57 °F

Past Weeks' High & Low Weather Summary

 TemperatureHumidityPressure
High66 °F (Aug 17, 4:20 PM)100% (Aug 15, 12:20 AM)30.12 "Hg (Aug 15, 12:20 AM)
Low45 °F (Aug 20, 6:20 AM)37% (Aug 22, 6:20 PM)29.68 "Hg (Aug 13, 2:55 PM)
Average56 °F79%29.95 "Hg
* Reported Aug 13 2:20 AM — Aug 28 2:20 AM, Crailsheim, Weather by CustomWeather, © 2014

Note: Actual official high and low records may vary slightly from our data, if they occured in-between our weather recording intervals... More about our weather records

Advertising

Crailsheim weather history for previous 24 hours

 ConditionsComfort  
Time TempWeatherWind HumidityBarometerVisibility
2:20 AM
Aug 28
52 °FPassing clouds.6 mph82%30.07 "HgN/A
1:20 AM50 °FPassing clouds.5 mph94%30.09 "HgN/A
12:20 AM50 °FPassing clouds.5 mph94%30.09 "HgN/A
11:20 PM
Aug 27
52 °FPassing clouds.5 mph94%30.07 "HgN/A
10:20 PM52 °FPassing clouds.3 mph100%30.07 "HgN/A
9:20 PM54 °FPassing clouds.3 mph94%30.07 "HgN/A
8:20 PM57 °FScattered clouds.2 mph88%30.07 "HgN/A
7:20 PM66 °FScattered clouds.2 mph60%30.07 "HgN/A
6:20 PM64 °FPassing clouds.2 mph60%30.07 "HgN/A
5:20 PM64 °FPassing clouds.5 mph56%30.04 "HgN/A
4:20 PM66 °FScattered clouds.3 mph60%30.04 "HgN/A
3:20 PM63 °FScattered clouds.6 mph64%30.04 "HgN/A
2:20 PM63 °FBroken clouds.5 mph68%30.04 "HgN/A
1:20 PM61 °FScattered clouds.5 mph68%30.04 "HgN/A
12:20 PM61 °FScattered clouds.5 mph68%30.01 "HgN/A
11:20 AM57 °FScattered clouds.6 mph82%30.01 "HgN/A
10:20 AM55 °FPartly sunny.3 mph88%29.98 "HgN/A
9:20 AM54 °FPartly sunny.5 mph94%29.95 "HgN/A
8:20 AM54 °FPartly sunny.5 mph94%29.95 "Hg5 mi
7:20 AM52 °FLight rain. Fog.5 mph100%29.89 "Hg3 mi
6:50 AM52 °FLight rain. Fog.5 mph100%29.89 "Hg2 mi
6:20 AM52 °FLight rain. Fog.5 mph100%29.86 "Hg2 mi
5:20 AM54 °FHeavy rain. Fog.5 mph94%29.83 "Hg2 mi
4:20 AM54 °FHeavy rain. Fog.6 mph94%29.83 "Hg2 mi
4:03 AM54 °FHeavy rain. Fog.3 mph94%29.80 "Hg2 mi
3:49 AM54 °FRain. Fog.3 mph100%29.80 "Hg2 mi
3:20 AM54 °FLight rain. Fog.5 mph100%29.80 "Hg2 mi
Weather by CustomWeather, © 2014

See weather overviewHow to use our weather pages